sat.trackr.live / text

‹ back to catalog

SKYSAT-C2

NORAD 41773 · 2016-058D

PAYLOAD ACTIVE UNKNOWN

§ Identity

Operator
Country
US
Launch date
2016-09-16
Launch site
FRGUI
Launch vehicle
Mass (kg)
RCS (m²)
0.34

Purposes: earth_obs

External: N2YO · Heavens-Above · Gunter

§ Orbital elements

Epoch: 2026-09-20T00:05:59.881920Z

Period
93.27 min
Inclination
97.0153°
Eccentricity
0.0004916
Mean motion
15.43966626 rev/d
Perigee alt
431.1 km
Apogee alt
437.8 km
Semi-major
6,812.6 km
B*
1.8903e-4
RAAN
281.6442°
Arg perigee
76.7788°
Mean anomaly
283.4009°
Rev number
55,967

§ Raw data

SKYSAT-C21 41773U 16058D   26263.00416530  .00008526  00000+0  18903-3 0  99942 41773  97.0153 281.6442 0004916  76.7788 283.4009 15.43966626559675

JSON: /api/v1/satellites/41773 · /tle

For live sub-satellite position, see the globe view (requires WebGL).

§ Visibility from observer

Set your observer location to see the next 7 days of passes ≥ 10°. The values pass through the URL so the page stays shareable.

No JS? Fill the form by hand. The geolocation button needs JavaScript.